Tracking 27188 objects as of 1-Apr-2023
HD Live streaming from Space Station
objects crossing your sky now

STARLINK-5636

Track STARLINK-5636 now!
10-day predictions
STARLINK-5636 is classified as:


NORAD ID: 55454
Int'l Code: 2023-015F
Perigee: 453.2 km
Apogee: 455.1 km
Inclination: 43.0 °
Period: 93.5 minutes
Semi major axis: 6825 km
RCS: Unknown
Launch date: February 2, 2023
Source: United States (US)
Launch site: AIR FORCE EASTERN TEST RANGE (AFETR)
Your satellite tracking list
Your tracking list is empty




NASA's NSSDC Master Catalog

Two Line Element Set (TLE):
1 55454U 23015F   23090.91667824 -.00919551  00000-0 -24795-1 0  9991
2 55454  43.0013  43.8959 0001385 253.2994  34.7891 15.39706939  9187
Source of the keplerian elements: AFSPC